Simultaneous Nadir Overpasses (SNOs) Predictions

Prediction of SNOs between GOES-15 and NPP Satellite Orbit:

Table of predicted SNOs for the next 14.0 days since TLE Epoch: 11/11/2016
Index Date Time (GOES-15) GOES-15 Lat,Lon NPP Lat,Lon Distance(km) Time Diff (sec)
1 11/12/2016 10:31:23 0.07,-135.18 0.41,-136.77 181.77 80
2 11/13/2016 10:15:19 0.08,-135.20 -0.61,-132.25 337.52 80
3 11/14/2016 22:34:35 -0.06,-135.18 -0.60,-137.55 269.77 80
4 11/15/2016 22:18:30 -0.07,-135.21 0.43,-133.02 249.18 80
5 11/17/2016 10:37:39 0.05,-135.29 0.71,-138.30 343.26 80
6 11/18/2016 10:21:33 0.06,-135.31 -0.26,-133.76 175.21 80
7 11/19/2016 22:40:51 -0.03,-135.28 -0.88,-139.08 433.35 80
8 11/20/2016 22:24:46 -0.04,-135.30 0.15,-134.55 85.08 80
9 11/23/2016 10:26:56
